Location: Poughquag
(41.6090°N, 73.6820°W)
Time: 15:49:25
(UTC-04:00)

CUBESAT XI-V - Pass Details

Date: 18 April 2024
Orbit: 657 x 681 km, 98.2° (Epoch: 19 May)

Event Time Altitude Azimuth Distance (km) Brightness Sun altitude
Exits shadow 03:37:25 23° 314° (NW) 1,441 ? -25.3°
Drops below altitude 10° 03:39:26 10° 330° (NNW) 2,124 ? -25.1°
Sets 03:41:49 0° 339° (NNW) 3,040 ? -24.7°
